{"data":{"norad_id":85217,"intl_designator":"","name":"UNKNOWN","alt_names":[],"object_type":"UNKNOWN","status":"UNKNOWN","operator":null,"country":null,"launch_date":null,"launch_site_code":null,"launch_vehicle":null,"mission":null,"orbit_class":"UNKNOWN","rcs_meters":null,"size_class":null,"mass_kg":null,"dimensions":null,"purposes":[],"wikipedia_slug":null,"has_3d_model":false,"image_url":null,"decayed_at":null,"tle_current":{"epoch":"2026-09-17T11:51:05.089824Z","epoch_age_seconds":274477,"freshness":"STALE","line1":"1 85217U          26260.49380891  .00000918  00000+0  24823-3 0  9990","line2":"2 85217  98.0204 341.7579 0204682   5.3727 354.9591 14.38369158667913","mean_motion":14.38369158,"eccentricity":0.0204682,"inclination_deg":98.0204,"raan_deg":341.7579,"arg_perigee_deg":5.3727,"mean_anomaly_deg":354.9591,"bstar":0.00024823,"rev_number":66791,"period_min":100.11338132432,"perigee_km":617.70736989963,"apogee_km":910.07631949775,"semimajor_km":7142.0288446987,"source":"CELESTRAK","updated_at":"2026-09-20T09:00:32.447430Z"}}}